#timestamp,LO_Frequency,Hit,StdDev 
1623312015.2,286047008.1,N
1623312035.0,286047008.8,N
1623312035.9,286047008.8,N
1623312055.8,286047009.1,N
1623312075.6,286047009.7,N
1623312095.5,286047007.7,N
1623312115.3,286047009.0,Y
1623312135.1,286046995.8,P
1623312155.9,286046995.4,N
1623312175.7,286046998.0,N
1623312195.6,286046995.0,N
1623312215.4,286046997.9,N
1623312235.2,286046994.1,N
1623312255.1,286046994.6,N
1623312256.0,286046994.6,N
1623312275.8,286046994.3,N
1623312295.6,286046993.5,N
1623312315.5,286046994.2,N
1623312335.3,286046992.1,N
1623312355.2,286046992.6,N
1623312375.9,286046992.8,N
1623312395.7,286046990.2,N
1623312415.6,286046990.5,N
1623312435.4,286046992.1,N
1623312455.2,286046992.2,N
1623312475.1,286046990.9,N
1623312476.0,286046990.9,N
1623312495.8,286046987.7,N
1623312515.7,286046987.1,N
1623312535.5,286046986.0,Y
1623312555.3,286046989.1,P
1623312575.2,286046986.9,P
1623312595.0,286046991.1,P
1623312595.9,286046991.1,Y
1623312615.7,286047002.7,P
1623312635.6,286046998.7,N
1623312655.4,286046997.6,N
1623312675.3,286046999.3,N
1623312695.1,286047001.0,N
1623312696.0,286047001.0,N
1623312715.8,286047001.6,N
1623312735.7,286047000.8,N
1623312755.5,286047002.4,N
1623312775.3,286047000.7,N
1623312795.2,286047001.1,N
1623312815.0,286047001.5,N
1623312815.9,286047001.5,N
1623312835.8,286047001.8,N
1623312855.6,286047000.7,N
1623312875.4,286046998.6,N
1623312895.3,286046997.1,N
1623312915.1,286046993.3,N
1623312935.9,286046994.5,N
1623312955.7,286046990.5,N
1623312975.5,286046990.9,N
1623312995.4,286046994.2,N
1623313015.2,286046994.1,N
1623313035.0,286046993.5,N
1623313035.9,286046993.5,N
1623313055.8,286046991.7,N
1623313075.6,286046994.0,N
1623313095.4,286046992.4,N
1623313115.3,286046992.0,N
1623313135.1,286046990.3,N
1623313155.9,286046988.7,N
1623313175.7,286046992.4,N
1623313195.5,286046990.2,N
1623313215.4,286046991.5,N
1623313235.2,286046988.6,N
1623313255.1,286046993.1,N
1623313256.0,286046993.1,N
1623313275.8,286046990.5,N
1623313295.6,286046988.7,N
1623313315.5,286046988.8,N
1623313335.3,286046989.5,N
1623313355.1,286046986.9,Y
1623313375.9,286046995.8,P
1623313395.7,286046994.7,P
1623313415.6,286046994.8,P
1623313435.4,286046990.3,Y
1623313455.2,286046996.9,P
1623313475.1,286046997.1,N
1623313476.0,286046997.1,N
1623313495.8,286046997.9,N
1623313515.6,286046999.5,N
1623313535.5,286046997.3,N
1623313555.3,286046999.6,N
1623313575.2,286046998.1,N
1623313595.9,286046998.9,N
1623313615.7,286046997.0,N
1623313635.6,286046998.2,N
1623313655.4,286046998.9,N
1623313675.2,286046999.0,N
1623313695.1,286046998.8,N
1623313696.0,286046998.8,N
1623313715.8,286047000.7,N
1623313735.7,286047001.2,N
1623313755.5,286046999.1,N
1623313775.3,286046997.5,N
1623313795.2,286046992.8,Y
1623313815.0,286046992.4,P
1623313815.9,286046992.4,N
1623313835.7,286046993.1,N
1623313855.6,286046992.9,N
1623313875.4,286046990.1,Y
1623313895.3,286046996.0,P
1623313915.1,286046999.1,N
1623313916.0,286046999.1,N
1623313935.8,286046994.5,N
1623313955.7,286046995.8,N
1623313975.5,286046990.4,Y
1623313995.3,286047001.1,P
1623314015.2,286047007.3,P
1623314035.0,286047005.6,N
1623314035.9,286047005.6,N
1623314055.8,286047004.4,N
1623314075.6,286047002.5,N
1623314095.4,286047001.1,N
1623314115.3,286047000.3,N
1623314135.1,286047000.7,N
1623314155.8,286047000.7,N
1623314175.7,286046999.9,N
1623314195.5,286047001.9,N
1623314215.4,286047002.2,N
1623314235.2,286047008.6,Y
1623314255.0,286047008.4,P
1623314255.9,286047008.4,N
1623314275.8,286047013.9,P
1623314295.6,286047008.3,N
1623314315.4,286047008.6,N
1623314335.3,286047012.2,Y
1623314355.1,286047003.5,P
1623314375.9,286047007.6,P
1623314395.7,286047007.4,P
1623314415.5,286047008.9,Y
1623314435.4,286046999.4,P
1623314455.2,286046993.5,N
1623314475.0,286046991.8,N
1623314475.9,286046991.8,N
1623314495.8,286046990.2,N
1623314515.6,286046992.7,N
1623314535.5,286046994.8,N
1623314555.3,286046990.3,N
1623314575.1,286046992.9,N
1623314595.9,286046991.3,N
1623314615.7,286046993.0,N
1623314635.5,286046994.1,N
1623314655.4,286046995.4,N
1623314675.2,286046997.8,N
1623314695.1,286046999.6,N
1623314696.0,286046999.6,N
1623314715.8,286046995.1,N
1623314735.6,286046991.7,N
1623314755.5,286046991.0,N
1623314775.3,286046990.4,N
1623314795.1,286046990.4,N
1623314815.9,286046990.1,N
1623314835.7,286046990.4,N
1623314855.5,286046991.0,N
1623314875.4,286046985.7,Y
1623314895.2,286046989.0,P
1623314915.1,286046991.7,P
1623314916.0,286046991.7,P
1623314935.8,286046993.3,Y
1623314955.6,286047002.1,P
1623314975.5,286047000.7,N
1623314995.3,286047000.3,N
1623315015.2,286047002.0,N
1623315035.9,286047004.3,N
1623315055.7,286047000.2,N
1623315075.6,286046998.1,N
1623315095.4,286046999.1,N
1623315115.2,286046997.7,N
1623315135.1,286046997.4,N
1623315136.0,286046997.4,N
1623315155.8,286046999.5,N
1623315175.6,286046997.0,N
1623315195.5,286046996.5,N
1623315215.3,286046996.6,N
1623315235.2,286046999.6,N
1623315255.9,286046998.7,N
1623315275.7,286046999.5,N
1623315295.6,286046994.0,N
1623315315.4,286046992.3,N
1623315335.2,286046993.0,N
1623315355.1,286046990.4,Y
1623315356.0,286046990.4,P
1623315375.8,286046996.9,N
1623315395.7,286046992.0,N
1623315415.5,286046992.1,N
1623315435.3,286046993.3,N
1623315455.2,286046990.8,Y
1623315475.0,286046992.1,P
1623315475.9,286046992.1,P
1623315495.8,286046992.9,P
1623315515.6,286046988.7,Y
1623315535.4,286046995.0,P
1623315555.3,286046997.7,N
1623315575.1,286046999.0,N
1623315595.8,286047000.8,N
